Provo, UT

6:03 PM MST on December 11, 2017 (GMT -0700)
Provo Municipal

Weather History for KPVU - April, 2013

Change the Weather History Date:

Thursday, April 4, 2013

  Actual Average Record
Temperature  
Mean Temperature 55 °F -  
Max Temperature 69 °F 53 °F 73 °F (1992)
Min Temperature 41 °F 33 °F 24 °F (2003)
Degree Days  
Heating Degree Days 10    
Growing Degree Days 5 (Base 50)    
Moisture  
Dew Point 36 °F    
Average Humidity 57    
Maximum Humidity 81    
Minimum Humidity 23    
Precipitation  
Precipitation 0.00 in - - ()
Sea Level Pressure  
Sea Level Pressure 30.10 in    
Wind  
Wind Speed 5 mph (SE)    
Max Wind Speed 10 mph    
Max Gust Speed -    
Visibility 12 miles    
Events      
Averages and records for this station are not official NWS values.
T = Trace of Precipitation, MM = Missing Value Source: NWS Daily Summary

Daily Weather History Graph

Daily Weather History Graph

Search for Another Location

Airport or City:

Trip Planner

Search our weather history database for the weather conditions in past years. The results will help you decide how hot, cold, wet, or windy it might be!

Date:

Astronomy

Apr. 04, 2013 Rise Set
Actual Time 7:05 AM MDT 7:54 PM MDT
Civil Twilight 6:37 AM MDT 8:22 PM MDT
Nautical Twilight 6:05 AM MDT 8:55 PM MDT
Astronomical Twilight 5:31 AM MDT 9:28 PM MDT
Moon 3:35 AM MDT (4/4) 2:16 PM MDT (4/4)
Length of Visible Light 13h 44m
Length of Day
12h 49m
Waning Crescent, 33% of the Moon is Illuminated
Apr 4
Waning Crescent
Apr 10
New
Apr 18
First Quarter
Apr 25
Full
May 2
Last Quarter

Hourly Weather History & Observations

Time (MDT) Temp. Windchill Dew Point Humidity Pressure Visibility Wind Dir Wind Speed Gust Speed Precip Events Conditions
12:35 AM 46.4 °F 43.5 °F 37.4 °F 71% 30.18 in 10.0 mi SSE 5.8 mph - N/A   Clear
12:55 AM 48.2 °F - 37.4 °F 66% 30.18 in 10.0 mi SE 5.8 mph - N/A   Clear
1:15 AM 48.2 °F - 37.4 °F 66% 30.18 in 10.0 mi Calm Calm - N/A   Clear
1:35 AM 48.2 °F - 35.6 °F 62% 30.18 in 10.0 mi ESE 3.5 mph - N/A   Clear
1:55 AM 44.6 °F 40.2 °F 35.6 °F 71% 30.18 in 10.0 mi SE 8.1 mph - N/A   Clear
2:15 AM 46.4 °F 42.9 °F 35.6 °F 66% 30.18 in 10.0 mi SE 6.9 mph - N/A   Clear
2:35 AM 44.6 °F - 35.6 °F 71% 30.18 in 10.0 mi Calm Calm - N/A   Clear
2:55 AM 42.8 °F 38.6 °F 35.6 °F 76% 30.18 in 10.0 mi East 6.9 mph - N/A   Clear
3:15 AM 42.8 °F - 35.6 °F 76% 30.18 in 10.0 mi Calm Calm - N/A   Clear
3:35 AM 44.6 °F - 35.6 °F 71% 30.18 in 10.0 mi Calm Calm - N/A   Clear
3:55 AM 44.6 °F 40.2 °F 35.6 °F 71% 30.18 in 10.0 mi SSE 8.1 mph - N/A   Clear
4:15 AM 44.6 °F 40.2 °F 37.4 °F 76% 30.18 in 10.0 mi ESE 8.1 mph - N/A   Clear
4:35 AM 46.4 °F 41.5 °F 35.6 °F 66% 30.18 in 10.0 mi SSE 10.4 mph - N/A   Clear
4:55 AM 44.6 °F 39.2 °F 35.6 °F 71% 30.18 in 10.0 mi SE 10.4 mph - N/A   Clear
5:15 AM 42.8 °F 40.1 °F 35.6 °F 76% 30.18 in 10.0 mi East 4.6 mph - N/A   Clear
5:35 AM 42.8 °F 37.0 °F 33.8 °F 70% 30.17 in 10.0 mi SSE 10.4 mph - N/A   Clear
5:55 AM 41.0 °F 35.2 °F 33.8 °F 76% 30.17 in 10.0 mi ESE 9.2 mph - N/A   Clear
6:15 AM 41.0 °F 36.4 °F 35.6 °F 81% 30.17 in 10.0 mi East 6.9 mph - N/A   Clear
6:35 AM 41.0 °F - 35.6 °F 81% 30.17 in 10.0 mi Calm Calm - N/A   Clear
6:50 AM 42.8 °F 40.1 °F 33.8 °F 70% 30.17 in 15.0 mi Variable 4.6 mph - N/A   Partly Cloudy
6:55 AM 42.8 °F 40.1 °F 33.8 °F 70% 30.17 in 10.0 mi South 4.6 mph - N/A   Clear
8:50 AM 42.8 °F 37.5 °F 35.6 °F 76% 30.18 in 15.0 mi SE 9.2 mph - N/A   Partly Cloudy
9:50 AM 57.2 °F - 35.6 °F 44% 30.17 in 15.0 mi ESE 9.2 mph - N/A   Scattered Clouds
11:50 AM 60.8 °F - 37.4 °F 42% 30.15 in 15.0 mi Calm Calm - N/A   Scattered Clouds
12:50 PM 62.6 °F - 39.2 °F 42% 30.12 in 15.0 mi Calm Calm - N/A   Scattered Clouds
1:48 PM 66.2 °F - 35.6 °F 32% 30.09 in 15.0 mi Calm Calm - N/A   Scattered Clouds
2:58 PM 69.8 °F - 33.8 °F 27% 30.05 in 15.0 mi Variable 4.6 mph - N/A   Scattered Clouds
3:48 PM 69.8 °F - 30.2 °F 23% 30.04 in 15.0 mi Variable 4.6 mph - N/A   Mostly Cloudy
4:47 PM 66.2 °F - 37.4 °F 35% 30.03 in 15.0 mi SSW 9.2 mph - N/A   Mostly Cloudy
5:49 PM 66.2 °F - 37.4 °F 35% 30.00 in 15.0 mi Calm Calm - N/A   Overcast
6:54 PM 69.8 °F - 35.6 °F 28% 29.99 in 15.0 mi South 3.5 mph - N/A   Mostly Cloudy
7:48 PM 62.6 °F - 37.4 °F 39% 29.97 in 15.0 mi Calm Calm - N/A   Mostly Cloudy
8:55 PM 60.8 °F - 39.2 °F 45% 29.97 in 15.0 mi Calm Calm - N/A   Mostly Cloudy
9:15 PM 59.0 °F - 37.4 °F 45% 29.97 in 10.0 mi ESE 8.1 mph - N/A   Overcast
9:35 PM 59.0 °F - 39.2 °F 48% 29.97 in 10.0 mi ESE 5.8 mph - N/A   Overcast
9:55 PM 59.0 °F - 41.0 °F 51% 29.98 in 10.0 mi SSE 3.5 mph - N/A   Overcast
10:15 PM 59.0 °F - 39.2 °F 48% 29.98 in 10.0 mi South 5.8 mph - N/A   Overcast
10:35 PM 57.2 °F - 39.2 °F 51% 29.98 in 10.0 mi SE 5.8 mph - N/A   Overcast
10:55 PM 57.2 °F - 39.2 °F 51% 29.98 in 10.0 mi East 4.6 mph - N/A   Overcast
11:15 PM 57.2 °F - 37.4 °F 48% 29.98 in 10.0 mi Calm Calm - N/A   Overcast
11:35 PM 57.2 °F - 37.4 °F 48% 29.97 in 10.0 mi ESE 5.8 mph - N/A   Overcast
11:55 PM 59.0 °F - 37.4 °F 45% 29.97 in 10.0 mi SE 5.8 mph - N/A   Overcast